Location: Brusselsch Zeekanaal
(50.8667°N, 4.3667°E)
Time: 09:58:54
(UTC+00:00)

Meteor 2-14 Rocket - Pass Details

Date: 08 November 2025
Orbit: 937 x 956 km, 82.5° (Epoch: 11 December)

Event Time Altitude Azimuth Distance (km) Brightness Sun altitude
Rises 04:03:46 0° 186° (S) 3,610 7.4 -25.8°
Reaches altitude 10° 04:06:15 10° 186° (S) 2,666 6.7 -25.4°
Maximum altitude 04:12:21 86° 100° (E) 955 4.4 -24.4°
Drops below altitude 10° 04:18:29 10° 11° (N) 2,671 6.9 -23.5°
Sets 04:20:58 0° 11° (NNE) 3,617 7.6 -23.1°
